When you browse on this site, cookies collect data to enhance your experience and personalize the content and advertising you see.
Visit our Privacy Policy to learn more. By continuing to use the site, you agree to this use of cookies and data.
  • In Latvia
  • List of Countries
  • For 7 days
  • Water Temperature
  • Weather Map
  • Weather Widgets
  • user-avatar
    Login

    Hourly Weather Zaluzhnyy

    Today, 22 October, Tuesday

    Time Temperature Precipitation Wind Pressure Humidity
    00:00 +12°C° 0 mm 2 mps 761 mmHg 63%
    01:00 +12°C° 0 mm 1 mps 761 mmHg 65%
    02:00 +12°C° 0 mm 1 mps 761 mmHg 67%
    03:00 +10°C° 0 mm 0 mps 761 mmHg 70%
    04:00 +10°C° 0 mm 0 mps 761 mmHg 72%
    05:00 +11°C° 0 mm 1 mps 761 mmHg 73%
    06:00 +11°C° 0 mm 1 mps 761 mmHg 74%
    07:00 +12°C° 0 mm 1 mps 761 mmHg 70%
    08:00 +13°C° 0 mm 1 mps 761 mmHg 67%
    09:00 +14°C° 0 mm 1 mps 761 mmHg 63%
    10:00 +16°C° 0 mm 1 mps 761 mmHg 57%
    11:00 +18°C° 0 mm 1 mps 761 mmHg 52%
    12:00 +20°C° 0 mm 1 mps 761 mmHg 47%
    13:00 +20°C° 0 mm 1 mps 761 mmHg 44%
    14:00 +21°C° 0 mm 1 mps 760 mmHg 42%
    15:00 +21°C° 0 mm 1 mps 760 mmHg 40%
    16:00 +20°C° 0 mm 1 mps 760 mmHg 44%
    17:00 +19°C° 0 mm 1 mps 760 mmHg 48%
    18:00 +16°C° 0 mm 1 mps 760 mmHg 52%
    19:00 +16°C° 0 mm 1 mps 760 mmHg 53%
    20:00 +16°C° 0 mm 1 mps 760 mmHg 54%
    21:00 +14°C° 0 mm 0 mps 760 mmHg 55%
    22:00 +15°C° 0 mm 1 mps 760 mmHg 55%
    23:00 +15°C° 0 mm 1 mps 760 mmHg 56%

    Tomorrow, 23 October, Wednesday

    Time Temperature Precipitation Wind Pressure Humidity
    00:00 +15°C° 0 mm 1 mps 759 mmHg 57%
    01:00 +14°C° 0 mm 1 mps 759 mmHg 59%
    02:00 +14°C° 0 mm 1 mps 759 mmHg 61%
    03:00 +14°C° 0 mm 1 mps 759 mmHg 62%
    04:00 +13°C° 0 mm 1 mps 759 mmHg 64%
    05:00 +13°C° 0 mm 1 mps 759 mmHg 66%
    06:00 +13°C° 0 mm 1 mps 759 mmHg 68%
    07:00 +14°C° 0 mm 1 mps 759 mmHg 64%
    08:00 +15°C° 0 mm 1 mps 760 mmHg 61%
    09:00 +16°C° 0 mm 1 mps 760 mmHg 57%
    10:00 +18°C° 0 mm 1 mps 760 mmHg 54%
    11:00 +20°C° 0 mm 1 mps 760 mmHg 50%
    12:00 +21°C° 0 mm 1 mps 760 mmHg 46%
    13:00 +19°C° 0 mm 0 mps 759 mmHg 45%
    14:00 +20°C° 0 mm 0 mps 759 mmHg 44%
    15:00 +20°C° 0 mm 0 mps 759 mmHg 44%
    16:00 +19°C° 0 mm 0 mps 759 mmHg 48%
    17:00 +18°C° 0 mm 0 mps 759 mmHg 52%
    18:00 +16°C° 0 mm 0 mps 759 mmHg 56%
    19:00 +16°C° 0 mm 0 mps 759 mmHg 57%
    20:00 +16°C° 0 mm 1 mps 759 mmHg 58%
    21:00 +16°C° 0 mm 1 mps 759 mmHg 60%
    22:00 +16°C° 0 mm 1 mps 759 mmHg 61%
    23:00 +15°C° 0 mm 1 mps 759 mmHg 62%

    Day after tomorrow, 24 October, Thursday

    Time Temperature Precipitation Wind Pressure Humidity
    00:00 +15°C° 0 mm 1 mps 758 mmHg 63%
    01:00 +14°C° 0 mm 1 mps 758 mmHg 64%
    02:00 +14°C° 0 mm 1 mps 758 mmHg 64%
    03:00 +13°C° 0 mm 1 mps 758 mmHg 65%
    04:00 +13°C° 0 mm 1 mps 758 mmHg 66%
    05:00 +13°C° 0 mm 1 mps 758 mmHg 66%
    06:00 +13°C° 0 mm 1 mps 758 mmHg 66%
    07:00 +14°C° 0 mm 1 mps 758 mmHg 62%
    08:00 +15°C° 0 mm 1 mps 758 mmHg 58%
    09:00 +16°C° 0 mm 2 mps 758 mmHg 53%
    10:00 +17°C° 0 mm 2 mps 758 mmHg 49%
    11:00 +19°C° 0 mm 2 mps 758 mmHg 44%
    12:00 +20°C° 0 mm 3 mps 758 mmHg 39%
    13:00 +20°C° 0 mm 3 mps 758 mmHg 38%
    14:00 +21°C° 0 mm 2 mps 757 mmHg 38%
    15:00 +21°C° 0 mm 2 mps 757 mmHg 37%
    16:00 +19°C° 0 mm 2 mps 757 mmHg 41%
    17:00 +19°C° 0 mm 1 mps 757 mmHg 44%
    18:00 +18°C° 0 mm 1 mps 757 mmHg 48%
    19:00 +16°C° 0 mm 1 mps 757 mmHg 49%
    20:00 +15°C° 0 mm 1 mps 757 mmHg 50%
    21:00 +15°C° 0 mm 1 mps 757 mmHg 51%
    22:00 +14°C° 0 mm 1 mps 757 mmHg 52%
    23:00 +14°C° 0 mm 1 mps 756 mmHg 53%

    25 October, Friday

    Time Temperature Precipitation Wind Pressure Humidity
    00:00 +13°C° 0 mm 1 mps 756 mmHg 54%
    01:00 +13°C° 0 mm 1 mps 756 mmHg 56%
    02:00 +12°C° 0 mm 1 mps 756 mmHg 57%
    03:00 +12°C° 0 mm 1 mps 756 mmHg 58%
    04:00 +12°C° 0 mm 1 mps 756 mmHg 60%
    05:00 +11°C° 0 mm 1 mps 756 mmHg 61%
    06:00 +10°C° 0 mm 2 mps 756 mmHg 63%
    07:00 +12°C° 0 mm 2 mps 756 mmHg 60%
    08:00 +13°C° 0 mm 2 mps 756 mmHg 57%
    09:00 +14°C° 0 mm 2 mps 757 mmHg 54%
    10:00 +15°C° 0 mm 2 mps 757 mmHg 49%
    11:00 +17°C° 0 mm 3 mps 757 mmHg 45%
    12:00 +18°C° 0 mm 3 mps 757 mmHg 41%
    13:00 +19°C° 0 mm 3 mps 757 mmHg 39%
    14:00 +19°C° 0 mm 3 mps 756 mmHg 38%
    15:00 +20°C° 0 mm 3 mps 756 mmHg 36%
    16:00 +18°C° 0 mm 3 mps 756 mmHg 41%
    17:00 +17°C° 0 mm 3 mps 757 mmHg 46%
    18:00 +14°C° 0 mm 3 mps 757 mmHg 51%
    19:00 +13°C° 0 mm 3 mps 757 mmHg 53%
    20:00 +13°C° 0 mm 3 mps 757 mmHg 55%
    21:00 +12°C° 0 mm 3 mps 757 mmHg 57%
    22:00 +11°C° 0 mm 3 mps 757 mmHg 58%
    23:00 +11°C° 0 mm 3 mps 757 mmHg 58%

    26 October, Saturday

    Time Temperature Precipitation Wind Pressure Humidity
    00:00 +10°C° 0 mm 3 mps 757 mmHg 59%
    01:00 +10°C° 0 mm 3 mps 757 mmHg 60%
    02:00 +10°C° 0 mm 3 mps 757 mmHg 60%
    03:00 +10°C° 0 mm 3 mps 757 mmHg 61%
    04:00 +9°C° 0 mm 3 mps 757 mmHg 62%
    05:00 +9°C° 0 mm 3 mps 758 mmHg 63%
    06:00 +9°C° 0 mm 3 mps 758 mmHg 64%
    07:00 +10°C° 0 mm 3 mps 758 mmHg 60%
    08:00 +11°C° 0 mm 3 mps 758 mmHg 57%
    09:00 +12°C° 0 mm 4 mps 758 mmHg 53%
    10:00 +14°C° 0 mm 4 mps 758 mmHg 48%
    11:00 +17°C° 0 mm 4 mps 758 mmHg 43%
    12:00 +17°C° 0 mm 5 mps 758 mmHg 38%
    13:00 +19°C° 0 mm 4 mps 757 mmHg 38%
    14:00 +19°C° 0 mm 4 mps 757 mmHg 39%
    15:00 +19°C° 0 mm 4 mps 757 mmHg 39%
    16:00 +18°C° 0 mm 4 mps 757 mmHg 45%
    17:00 +16°C° 0 mm 3 mps 757 mmHg 51%
    18:00 +14°C° 0 mm 3 mps 757 mmHg 57%
    19:00 +13°C° 0 mm 3 mps 757 mmHg 62%
    20:00 +13°C° 0 mm 3 mps 757 mmHg 68%
    21:00 +12°C° 0 mm 3 mps 756 mmHg 73%
    22:00 +13°C° 0 mm 2 mps 756 mmHg 77%
    23:00 +13°C° 0 mm 2 mps 756 mmHg 80%

    27 October, Sunday

    Time Temperature Precipitation Wind Pressure Humidity
    00:00 +13°C° 0 mm 2 mps 756 mmHg 84%
    01:00 +13°C° 0 mm 2 mps 756 mmHg 81%
    02:00 +13°C° 0 mm 2 mps 756 mmHg 79%
    03:00 +13°C° 0 mm 2 mps 756 mmHg 77%
    04:00 +13°C° 0 mm 2 mps 756 mmHg 76%
    05:00 +13°C° 0 mm 2 mps 756 mmHg 76%
    06:00 +13°C° 0 mm 2 mps 756 mmHg 75%
    07:00 +14°C° 0 mm 2 mps 756 mmHg 72%
    08:00 +14°C° 0 mm 2 mps 756 mmHg 70%
    09:00 +15°C° 0 mm 2 mps 756 mmHg 68%
    10:00 +16°C° 0 mm 3 mps 756 mmHg 63%
    11:00 +18°C° 0 mm 3 mps 756 mmHg 58%
    12:00 +19°C° 0 mm 3 mps 755 mmHg 54%
    13:00 +19°C° 0 mm 3 mps 755 mmHg 53%
    14:00 +20°C° 0 mm 2 mps 755 mmHg 51%
    15:00 +20°C° 0 mm 2 mps 754 mmHg 50%
    16:00 +19°C° 0 mm 2 mps 754 mmHg 54%
    17:00 +18°C° 0 mm 1 mps 754 mmHg 59%
    18:00 +16°C° 0 mm 1 mps 754 mmHg 63%
    19:00 +16°C° 0 mm 1 mps 754 mmHg 65%
    20:00 +15°C° 0 mm 1 mps 754 mmHg 67%
    21:00 +14°C° 0 mm 1 mps 754 mmHg 69%
    22:00 +14°C° 0 mm 1 mps 754 mmHg 70%
    23:00 +14°C° 0 mm 1 mps 754 mmHg 71%

    28 October, Monday

    Time Temperature Precipitation Wind Pressure Humidity
    00:00 +13°C° 0 mm 1 mps 754 mmHg 72%
    01:00 +13°C° 0 mm 1 mps 753 mmHg 73%
    02:00 +12°C° 0 mm 2 mps 753 mmHg 74%
    03:00 +12°C° 0 mm 2 mps 753 mmHg 75%
    04:00 +12°C° 0 mm 2 mps 753 mmHg 77%
    05:00 +10°C° 0 mm 2 mps 753 mmHg 79%
    06:00 +10°C° 0 mm 2 mps 752 mmHg 81%
    07:00 +11°C° 0 mm 3 mps 753 mmHg 77%
    08:00 +12°C° 0 mm 3 mps 753 mmHg 74%
    09:00 +13°C° 0 mm 4 mps 753 mmHg 70%
    10:00 +15°C° 0 mm 4 mps 753 mmHg 63%
    11:00 +17°C° 0 mm 4 mps 753 mmHg 56%
    12:00 +19°C° 0 mm 5 mps 753 mmHg 50%
    13:00 +19°C° 0 mm 5 mps 752 mmHg 49%
    14:00 +20°C° 0 mm 5 mps 752 mmHg 47%
    15:00 +20°C° 0 mm 6 mps 752 mmHg 46%
    16:00 +19°C° 0 mm 5 mps 752 mmHg 51%
    17:00 +16°C° 0 mm 5 mps 752 mmHg 57%
    18:00 +15°C° 0 mm 4 mps 752 mmHg 62%
    19:00 +14°C° 0 mm 4 mps 752 mmHg 64%
    20:00 +13°C° 0 mm 4 mps 752 mmHg 67%
    21:00 +13°C° 0 mm 4 mps 752 mmHg 69%
    22:00 +12°C° 0 mm 4 mps 752 mmHg 73%
    23:00 +12°C° 0 mm 3 mps 752 mmHg 77%
    Show more